Flag for Guatemala Weather past 2 weeks in Guatemala, Guatemala

Now
59 °F

Broken clouds.


Feels Like: 56 °F
Forecast: 58 / 76 °F
Wind: 14 mph from North

Location: Guatemala Aeropuertola Aurora

Current Time: Mar 31, 2015 at 6:28:11 AM

Latest Report: Mar 31, 2015 at 6:00 AM


Visibility: N/A

Pressure: 30.30 "Hg

Humidity: 88%

Dew point: 55 °F

Location of GuatemalaLocation

Historic Weather in Guatemala — Graph

°F

Guatemala temperature yesterday

Maximum temperature yesterday: 77 °F (at 1:00 PM)
Minimum temperature yesterday: 59 °F (at 4:00 AM)
Average temperature yesterday: 66 °F

Past Weeks' High & Low Weather Summary

 TemperatureHumidityPressure
High82 °F (Mar 27, 2:00 PM)100% (Mar 21, 7:00 PM)30.42 "Hg (Mar 21, 7:00 PM)
Low48 °F (Mar 21, 7:00 PM)34% (Mar 18, 1:00 PM)30.01 "Hg (Mar 21, 1:00 PM)
Average67 °F73%30.31 "Hg
* Reported Mar 16 5:00 AM — Mar 31 5:00 AM, Guatemala, Weather by CustomWeather, © 2015

Note: Actual official high and low records may vary slightly from our data, if they occured in-between our weather recording intervals... More about our weather records

Advertising

Guatemala weather history for previous 24 hours

 ConditionsComfort  
Time TempWeatherWind HumidityBarometerVisibility
5:00 AM
Tue, Mar 31
59 °FPassing clouds.16 mph88%30.30 "HgN/A
4:00 AM59 °FPassing clouds.14 mph88%30.30 "HgN/A
3:00 AM59 °FPassing clouds.18 mph88%30.30 "HgN/A
2:00 AM61 °FPassing clouds.14 mph88%30.30 "HgN/A
1:00 AM61 °FPassing clouds.12 mph88%30.33 "HgN/A
12:00 AM61 °FPassing clouds.14 mph88%30.33 "HgN/A
11:00 PM
Mon, Mar 30
61 °FPassing clouds.18 mph94%30.36 "HgN/A
10:00 PM61 °FPassing clouds.14 mph94%30.36 "HgN/A
9:00 PM63 °FPassing clouds.18 mph83%30.36 "HgN/A
8:00 PM64 °FPassing clouds.16 mph78%30.33 "HgN/A
7:00 PM64 °FPassing clouds.16 mph78%30.30 "HgN/A
6:00 PM68 °FScattered clouds.16 mph73%30.27 "HgN/A
5:00 PM73 °FScattered clouds.16 mph61%30.27 "HgN/A
4:00 PM75 °FScattered clouds.16 mph57%30.27 "HgN/A
3:00 PM75 °FScattered clouds.14 mph54%30.27 "HgN/A
2:00 PM75 °FScattered clouds.14 mph57%30.30 "HgN/A
1:00 PM77 °FScattered clouds.12 mph54%30.33 "HgN/A
12:00 PM73 °FPartly sunny.12 mph57%30.36 "HgN/A
11:00 AM72 °FScattered clouds.12 mph65%30.39 "HgN/A
10:00 AM70 °FScattered clouds.14 mph73%30.39 "HgN/A
9:00 AM64 °FScattered clouds.12 mph83%30.39 "HgN/A
8:00 AM63 °FBroken clouds.9 mph88%30.39 "HgN/A
7:00 AM61 °FPartly sunny.14 mph94%30.36 "HgN/A
6:00 AM59 °FPartly sunny.9 mph100%30.33 "Hg5 mi
Weather by CustomWeather, © 2015

See weather overviewHow to use our weather pages